Grizzly Air Cargo 5377


PADL
Dillingham Airport
Dillingham, Alaska, US
PAKN
King Salmon Airport
King Salmon, Alaska, US

Activity Log

Date Flight Route Aircraft Duration
No Flights Yet

Route Details

Aircraft Information
Primary: Saab 340AF
Backup: Not Available
Route Data
Distance: 73nm
Sched. Duration: 0h 30m
Avg. Duration: 0h 00m (-30m)
Times Flown: 0
Recm'd Route: DLG V453 AKN
Planned Altitude: 11,000ft
Origin Wx: PADL 221856Z 03015G21KT 10SM BKN080 02/M04 A3010 RMK AO2 SLP197 T00171044
Dest. Wx: PAKN 221854Z 09019G29KT 10SM BKN110 07/00 A3000 RMK AO2 PK WND 11029/1845 SLP160 T00720000 $
Notes:

Financial History
Total Freight: 0lbs
Average Load: 0lbs/flt
Fuel Used: 0lbs
Avg. Fuel Used: 0lbs/flt
Fuel Expense: $0
Avg. Fuel Expense: $0
Avg. Fuel Cost: $0/lbs
Total Gross Income: $0
Pilot Pay: $0
Total Expenses: $0
Total Revenue: $0
Average Revenue: $0